Simultaneous Nadir Overpasses (SNOs) Predictions

Prediction of SNOs between GOES-15 and TERRA Satellite Orbit:

Table of predicted SNOs for the next 14.0 days since TLE Epoch: 3/30/2017
Index Date Time (GOES-15) GOES-15 Lat,Lon TERRA Lat,Lon Distance(km) Time Diff (sec)
1 03/30/2017 19:39:52 -0.02,-135.16 0.37,-137.00 209.94 80
2 04/01/2017 19:25:01 -0.02,-135.21 -0.29,-134.05 132.69 80
3 04/02/2017 07:46:25 0.03,-135.24 -0.83,-139.24 455.24 80
4 04/03/2017 19:12:49 -0.02,-135.27 -0.89,-131.09 474.63 80
5 04/04/2017 07:34:14 0.03,-135.29 -0.16,-136.29 113.35 80
6 04/06/2017 07:24:42 0.03,-135.34 0.44,-133.33 228.35 80
7 04/06/2017 19:45:58 -0.04,-135.34 0.62,-138.49 357.41 80
8 04/08/2017 19:33:46 -0.04,-135.39 0.01,-135.53 15.98 80
9 04/10/2017 19:18:54 -0.03,-135.43 -0.61,-132.56 325.31 80
10 04/11/2017 07:40:19 0.04,-135.44 -0.43,-137.77 263.43 80
11 04/13/2017 07:30:47 0.04,-135.48 0.19,-134.81 77.23 80




NCC Satellite Simultaneous Nadir Overpasses (SNOs) Prediction Service
